When you browse on this site, cookies collect data to enhance your experience and personalize the content and advertising you see.
Visit our Privacy Policy to learn more. By continuing to use the site, you agree to this use of cookies and data.
  • In Österreich
  • Länderverzeichnis
  • Für 7 Tage
  • Wassertemperatur
  • Wetterkarte
  • News
  • Widgets
  • user-avatar
    Anmelden

    Stündliche Wetter Soacha

    Heute, 17 September, Dienstag

    Zeit Temperatur Niederschläge Wind Luftdruck Luftfeuchtigkeit
    00:00 +12°C° 0.1 mm 1 m/S 560 mmHg 81%
    01:00 +12°C° 0.1 mm 1 m/S 560 mmHg 81%
    02:00 +12°C° 0.2 mm 1 m/S 559 mmHg 82%
    03:00 +11°C° 0.2 mm 1 m/S 559 mmHg 82%
    04:00 +11°C° 0.2 mm 1 m/S 559 mmHg 83%
    05:00 +12°C° 0.1 mm 1 m/S 560 mmHg 80%
    06:00 +13°C° 0.1 mm 1 m/S 560 mmHg 78%
    07:00 +12°C° 0.1 mm 0 m/S 561 mmHg 76%
    08:00 +15°C° 0.1 mm 1 m/S 562 mmHg 71%
    09:00 +18°C° 0.1 mm 1 m/S 563 mmHg 66%
    10:00 +19°C° 0.1 mm 2 m/S 564 mmHg 62%
    11:00 +19°C° 0.6 mm 2 m/S 563 mmHg 65%
    12:00 +18°C° 0.6 mm 2 m/S 562 mmHg 69%
    13:00 +18°C° 0.6 mm 2 m/S 562 mmHg 73%
    14:00 +18°C° 1.3 mm 2 m/S 561 mmHg 74%
    15:00 +19°C° 1.3 mm 1 m/S 561 mmHg 74%
    16:00 +18°C° 1.3 mm 1 m/S 560 mmHg 75%
    17:00 +16°C° 0.7 mm 1 m/S 560 mmHg 79%
    18:00 +15°C° 0.7 mm 1 m/S 560 mmHg 83%
    19:00 +14°C° 0.7 mm 1 m/S 560 mmHg 86%
    20:00 +14°C° 0.5 mm 1 m/S 560 mmHg 86%
    21:00 +13°C° 0.5 mm 1 m/S 560 mmHg 86%
    22:00 +13°C° 0.5 mm 1 m/S 561 mmHg 86%
    23:00 +13°C° 0.3 mm 1 m/S 560 mmHg 87%

    Morgen, 18 September, Mittwoch

    Zeit Temperatur Niederschläge Wind Luftdruck Luftfeuchtigkeit
    00:00 +12°C° 0.3 mm 0 m/S 560 mmHg 88%
    01:00 +12°C° 0.3 mm 0 m/S 560 mmHg 89%
    02:00 +12°C° 0.7 mm 0 m/S 560 mmHg 91%
    03:00 +11°C° 0.7 mm 0 m/S 560 mmHg 93%
    04:00 +11°C° 0.7 mm 0 m/S 559 mmHg 95%
    05:00 +11°C° 1.3 mm 0 m/S 560 mmHg 94%
    06:00 +11°C° 1.3 mm 0 m/S 560 mmHg 94%
    07:00 +13°C° 1.3 mm 1 m/S 561 mmHg 94%
    08:00 +13°C° 0.2 mm 1 m/S 561 mmHg 91%
    09:00 +14°C° 0.2 mm 1 m/S 561 mmHg 87%
    10:00 +15°C° 0.2 mm 1 m/S 562 mmHg 84%
    11:00 +16°C° 0.4 mm 1 m/S 562 mmHg 81%
    12:00 +18°C° 0.3 mm 1 m/S 561 mmHg 77%
    13:00 +18°C° 0.3 mm 2 m/S 561 mmHg 74%
    14:00 +18°C° 0.6 mm 1 m/S 561 mmHg 78%
    15:00 +16°C° 0.6 mm 1 m/S 560 mmHg 81%
    16:00 +16°C° 0.6 mm 1 m/S 559 mmHg 85%
    17:00 +15°C° 0.8 mm 1 m/S 559 mmHg 86%
    18:00 +15°C° 0.8 mm 1 m/S 559 mmHg 88%
    19:00 +14°C° 0.8 mm 1 m/S 559 mmHg 90%
    20:00 +13°C° 0.4 mm 0 m/S 559 mmHg 89%
    21:00 +12°C° 0.4 mm 0 m/S 560 mmHg 89%
    22:00 +12°C° 0.4 mm 0 m/S 560 mmHg 88%
    23:00 +12°C° 0.1 mm 0 m/S 560 mmHg 88%

    übermorgen, 19 September, Donnerstag

    Zeit Temperatur Niederschläge Wind Luftdruck Luftfeuchtigkeit
    00:00 +12°C° 0.1 mm 0 m/S 559 mmHg 87%
    01:00 +12°C° 0.1 mm 0 m/S 559 mmHg 87%
    02:00 +11°C° 0 mm 0 m/S 559 mmHg 87%
    03:00 +11°C° 0 mm 0 m/S 559 mmHg 87%
    04:00 +11°C° 0 mm 0 m/S 559 mmHg 87%
    05:00 +11°C° 0 mm 0 m/S 559 mmHg 86%
    06:00 +12°C° 0 mm 0 m/S 560 mmHg 85%
    07:00 +12°C° 0 mm 0 m/S 560 mmHg 84%
    08:00 +15°C° 0.2 mm 1 m/S 561 mmHg 81%
    09:00 +16°C° 0.2 mm 1 m/S 562 mmHg 77%
    10:00 +19°C° 0.2 mm 1 m/S 563 mmHg 73%
    11:00 +18°C° 1.1 mm 1 m/S 562 mmHg 76%
    12:00 +18°C° 1.1 mm 1 m/S 562 mmHg 78%
    13:00 +18°C° 1.1 mm 1 m/S 561 mmHg 81%
    14:00 +18°C° 1.2 mm 1 m/S 560 mmHg 82%
    15:00 +16°C° 1.2 mm 1 m/S 560 mmHg 83%
    16:00 +16°C° 1.2 mm 1 m/S 559 mmHg 84%
    17:00 +15°C° 0.9 mm 1 m/S 559 mmHg 87%
    18:00 +14°C° 0.9 mm 1 m/S 559 mmHg 90%
    19:00 +12°C° 0.9 mm 0 m/S 559 mmHg 92%
    20:00 +12°C° 0.3 mm 0 m/S 559 mmHg 91%
    21:00 +12°C° 0.3 mm 0 m/S 560 mmHg 90%
    22:00 +12°C° 0.3 mm 0 m/S 560 mmHg 88%
    23:00 +12°C° 0.5 mm 0 m/S 560 mmHg 89%

    20 September, Freitag

    Zeit Temperatur Niederschläge Wind Luftdruck Luftfeuchtigkeit
    00:00 +12°C° 0.5 mm 0 m/S 560 mmHg 90%
    01:00 +12°C° 0.5 mm 0 m/S 560 mmHg 91%
    02:00 +11°C° 0.1 mm 0 m/S 559 mmHg 91%
    03:00 +11°C° 0.1 mm 0 m/S 559 mmHg 91%
    04:00 +11°C° 0.1 mm 0 m/S 559 mmHg 91%
    05:00 +11°C° 0 mm 0 m/S 560 mmHg 89%
    06:00 +12°C° 0 mm 0 m/S 561 mmHg 87%
    07:00 +12°C° 0 mm 0 m/S 561 mmHg 85%
    08:00 +15°C° 0.3 mm 1 m/S 562 mmHg 81%
    09:00 +16°C° 0.3 mm 1 m/S 563 mmHg 77%
    10:00 +18°C° 0.3 mm 1 m/S 564 mmHg 74%
    11:00 +18°C° 1.1 mm 1 m/S 563 mmHg 76%
    12:00 +18°C° 1.1 mm 1 m/S 562 mmHg 79%
    13:00 +17°C° 1.1 mm 2 m/S 562 mmHg 81%
    14:00 +16°C° 1.1 mm 1 m/S 561 mmHg 83%
    15:00 +16°C° 1.1 mm 1 m/S 561 mmHg 85%
    16:00 +15°C° 1.1 mm 1 m/S 560 mmHg 87%
    17:00 +15°C° 1 mm 1 m/S 560 mmHg 89%
    18:00 +14°C° 1 mm 1 m/S 560 mmHg 90%
    19:00 +13°C° 1 mm 1 m/S 560 mmHg 91%
    20:00 +13°C° 0.3 mm 1 m/S 560 mmHg 91%
    21:00 +13°C° 0.3 mm 1 m/S 561 mmHg 90%
    22:00 +11°C° 0.3 mm 0 m/S 561 mmHg 90%
    23:00 +11°C° 0 mm 0 m/S 561 mmHg 89%

    21 September, Samstag

    Zeit Temperatur Niederschläge Wind Luftdruck Luftfeuchtigkeit
    00:00 +11°C° 0 mm 0 m/S 560 mmHg 88%
    01:00 +11°C° 0 mm 0 m/S 560 mmHg 88%
    02:00 +11°C° 0.1 mm 0 m/S 560 mmHg 87%
    03:00 +11°C° 0.1 mm 0 m/S 560 mmHg 87%
    04:00 +11°C° 0.1 mm 0 m/S 560 mmHg 87%
    05:00 +11°C° 0 mm 0 m/S 561 mmHg 85%
    06:00 +12°C° 0 mm 0 m/S 561 mmHg 84%
    07:00 +12°C° 0 mm 0 m/S 562 mmHg 82%
    08:00 +15°C° 0.2 mm 1 m/S 562 mmHg 78%
    09:00 +16°C° 0.2 mm 1 m/S 563 mmHg 74%
    10:00 +19°C° 0.2 mm 1 m/S 564 mmHg 70%
    11:00 +19°C° 0.7 mm 1 m/S 563 mmHg 70%
    12:00 +19°C° 0.7 mm 1 m/S 563 mmHg 70%
    13:00 +18°C° 0.7 mm 2 m/S 562 mmHg 71%
    14:00 +19°C° 1 mm 1 m/S 561 mmHg 73%
    15:00 +18°C° 1 mm 1 m/S 561 mmHg 75%
    16:00 +18°C° 1 mm 1 m/S 560 mmHg 77%
    17:00 +15°C° 0.6 mm 1 m/S 560 mmHg 80%
    18:00 +14°C° 0.6 mm 1 m/S 560 mmHg 83%
    19:00 +13°C° 0.6 mm 1 m/S 559 mmHg 87%
    20:00 +12°C° 0.1 mm 1 m/S 559 mmHg 85%
    21:00 +12°C° 0.1 mm 1 m/S 560 mmHg 84%
    22:00 +12°C° 0.1 mm 1 m/S 560 mmHg 83%
    23:00 +12°C° 0.2 mm 1 m/S 560 mmHg 83%

    22 September, Sonntag

    Zeit Temperatur Niederschläge Wind Luftdruck Luftfeuchtigkeit
    00:00 +12°C° 0.2 mm 1 m/S 560 mmHg 83%
    01:00 +11°C° 0.2 mm 1 m/S 559 mmHg 83%
    02:00 +12°C° 0.2 mm 1 m/S 559 mmHg 83%
    03:00 +12°C° 0.2 mm 1 m/S 559 mmHg 82%
    04:00 +12°C° 0.2 mm 1 m/S 559 mmHg 82%
    05:00 +12°C° 0.1 mm 1 m/S 560 mmHg 82%
    06:00 +13°C° 0.1 mm 1 m/S 561 mmHg 82%
    07:00 +13°C° 0.1 mm 1 m/S 562 mmHg 81%
    08:00 +15°C° 0.1 mm 1 m/S 562 mmHg 75%
    09:00 +16°C° 0.1 mm 1 m/S 563 mmHg 68%
    10:00 +19°C° 0.1 mm 1 m/S 564 mmHg 61%
    11:00 +19°C° 0.4 mm 1 m/S 564 mmHg 62%
    12:00 +19°C° 0.4 mm 1 m/S 563 mmHg 62%
    13:00 +19°C° 0.4 mm 2 m/S 562 mmHg 63%
    14:00 +19°C° 0.2 mm 1 m/S 562 mmHg 64%
    15:00 +19°C° 0.2 mm 1 m/S 561 mmHg 65%
    16:00 +18°C° 0.2 mm 1 m/S 561 mmHg 66%
    17:00 +16°C° 0.1 mm 1 m/S 560 mmHg 73%
    18:00 +14°C° 0.1 mm 1 m/S 560 mmHg 80%
    19:00 +12°C° 0.1 mm 1 m/S 559 mmHg 87%
    20:00 +12°C° 0.1 mm 1 m/S 560 mmHg 84%
    21:00 +11°C° 0.1 mm 1 m/S 560 mmHg 80%
    22:00 +11°C° 0.1 mm 1 m/S 560 mmHg 77%
    23:00 +11°C° 0.1 mm 1 m/S 560 mmHg 76%
    Mehr zeigen